星链-31673 (STARLINK-31673 )

导读

STARLINK-31673是美国SpaceX星链星座的成员卫星,于2024年3月19日成功发射入轨。作为星链低轨互联网星座的组网卫星,它运行在近地轨道,旨在为全球偏远地区、移动场景提供高速低延迟宽带互联网服务,支撑星链住宅接入、漫游、船载等多元业务,进一步完善星链星座的全球覆盖能力,推动卫星互联网的普及与应用拓展。

Basic Information
目录编号:
59262
目录名称:
STARLINK-31673
国际标识:
2024-050J
轨道中心:
EARTH
卫星名称:
星链-31673
卫星全名:
星链-31673 (STARLINK-31673 )
卫星状态:
已陨落 最后检测时间 2025-07-01
发射日期:
2024-03-19 UTC
国别 :
美国 (US)
星等 :
--
Orbit Information
数据来源 国际轨道数据
星历时间: 2025-07-01T22:05:36+0800
轨道信息已过期351天
半长轴: 6561.407km
偏心率: 0.0009338
轨道倾角: 53.124°
近地点辐角 322.806°
升交点赤经 249.016°
平近点角 186.706°
近地点: 177.144km
远地点: 189.4km
周期: 88.157分钟
每日圈数: 16.334555
Detailed Information
固有亮度:
5
最大亮度:
0.3
卫星平台:
Starlink v2.0 mini
覆盖范围:
全球
运营商:
太空探索技术公司
运营商所在国:
美国
制造商(研发单位):
太空探索技术公司
制造商所在国:
美国
使用方式:
暂无
Satellite Introduction
星链(Starlink)计划是由太空探索技术公司(SpaceX)提出的一个巨型低轨卫星互联网星座项目,计划在2019年至2024年间在太空搭建由约1.2万颗卫星组成的“星链”网络,其中1584颗将部署在地球上空550千米处的近地轨道,并从2020年开始工作。该卫星仍在工作。